Regional Weather Roundup
Issued by NWS Binghamton, NY

Home | Current Version | Previous Version | Text Only | Print | Product List | Glossary On
Versions: 1 2 3 4 5 6 7 8 9 10 11 12 13 14 15 16 17 18 19 20 21 22 23 24 25 26 27 28 29 30 31 32 33 34 35 36 37 38 39 40 41 42 43 44 45 46 47 48 49 50
000
ASUS41 KBGM 301610
RWRBGM
RWRBGM
BINGHAMTON REGIONAL WEATHER ROUNDUP
NATIONAL WEATHER SERVICE BINGHAMTON NY
1200 PM EDT TUE SEP 30 2014

Note: "fair" indicates few or no clouds below 12,000 feet with no
significant weather and/or obstructions to visibility.

* = Station(s) that does not report precipitation, such as rain,
snow, etc, also no thunder or fog.

!NYZ009-015>018-022>025-036-037-044>046-055>057-062-301700
...CENTRAL NEW YORK...

CITY           SKY/WX    TMP DP  RH WIND       PRES   REMARKS
BINGHAMTON     MOSUNNY   69  60  73 VRB6      29.94S
CORTLAND       FAIR      72  61  68 E3        29.93S
DANSVILLE      SUNNY     72  56  57 E7        29.89F
ELMIRA         MOSUNNY   68  60  75 CALM      29.90F
ITHACA         MOSUNNY   73  58  59 S3        29.92F
MONTICELLO     PTSUNNY   64  59  82 S5        29.98F
NORWICH        SUNNY     70  57  64 S6        29.94S
ONEONTA        SUNNY     66  57  72 W6        29.96R
PENN YAN       MOSUNNY   71  58  63 CALM      29.91F
ROME           MOSUNNY   69  60  73 E13       29.94F
SIDNEY         CLOUDY    70  64  83 S3        29.94S
SYRACUSE       MOSUNNY   74  60  61 CALM      29.90S
$$

!PAZ038>040-043-044-047-048-072-301700
...NORTHEAST PENNSYLVANIA...

CITY           SKY/WX    TMP DP  RH WIND       PRES   REMARKS
HAZLETON       CLOUDY    64  59  82 E6        29.99S HAZE
SCRANTON       MOSUNNY   72  58  61 VRB5      29.93F
$$
&&
KEY
WCI = WIND CHILL INDEX
VSB = VISIBILITY
HX  = HEAT INDEX
$$


USA.gov is the U.S. government's official web portal to all federal, state and local government web resources and services.